Wind_Speed
30 32 30 31 33 34 32 31 29 27 25 24 23 20 20 18 19 22 22 22 26 27 30 30 34 38 41 39 35 31 31 31 26 25 25 23 21 24 27 29 31 32 30 28 36
32 35 35 34 35 36 35 36 34 32 30 27 27 26 24 23 21 22 23 27 29 29 31 35 33 38 40 38 30 29 31 31 28 23 22 18 19 24 27 29 30 29 28 31 33
35 34 38 38 38 38 38 38 38 36 34 33 31 30 28 26 24 24 26 27 30 31 31 35 33 36 38 37 31 29 31 29 24 23 22 20 20 21 24 24 30 30 30 34 32
38 38 38 41 42 42 40 40 41 42 40 39 36 35 32 30 30 29 28 29 29 33 33 36 36 34 37 36 33 30 30 29 25 26 24 24 21 22 26 30 30 32 35 35 34
38 40 41 42 44 44 44 41 43 44 46 44 42 40 38 33 33 31 31 32 31 34 36 37 37 34 34 36 34 30 28 27 27 31 29 28 26 27 28 31 32 36 36 33 36
41 41 43 44 45 48 47 46 46 46 47 49 47 44 41 39 36 35 36 34 34 35 37 34 37 35 34 35 32 31 28 28 28 27 29 27 26 30 31 32 34 34 36 38 40
40 43 45 44 46 47 49 50 50 50 49 50 50 47 45 41 39 39 38 37 36 39 34 33 36 37 36 37 35 32 32 31 29 28 27 27 26 28 28 31 35 39 40 41 41
40 41 45 47 47 47 48 51 53 54 54 54 53 49 48 43 43 42 41 40 41 41 36 32 37 39 37 39 36 35 31 30 28 29 30 29 30 27 30 34 37 40 41 41 46
34 37 40 43 49 49 49 50 50 52 57 57 56 52 49 47 47 45 42 43 45 44 38 37 39 40 40 41 39 37 36 32 31 26 32 32 35 34 35 36 38 41 44 48 51
36 35 35 36 40 45 48 50 50 50 51 56 56 55 52 50 47 48 45 46 47 43 44 44 41 41 43 43 41 39 38 36 31 30 34 33 39 42 40 44 46 44 45 46 51
40 38 35 36 39 40 43 47 49 49 53 52 53 55 54 53 52 52 48 45 45 46 48 49 45 44 44 45 46 43 40 37 37 33 34 36 38 42 43 43 44 46 46 50 52
46 44 41 40 39 41 42 44 46 48 50 49 48 51 56 57 55 54 52 47 49 51 53 52 51 49 48 48 48 47 45 44 41 41 39 43 42 44 50 52 52 50 49 57 61
51 49 47 44 43 43 44 45 44 44 42 47 44 48 53 56 55 57 55 54 55 58 56 55 53 49 50 50 50 52 49 46 44 45 47 47 42 45 52 59 59 60 63 65 65
50 50 50 49 48 49 47 47 46 43 35 37 45 49 53 56 57 57 58 59 60 61 59 56 55 50 49 52 53 53 53 51 50 46 44 52 39 43 51 61 63 62 64 65 62
59 58 55 53 52 52 50 49 46 44 33 36 41 52 58 59 57 57 57 59 60 60 61 58 53 51 54 55 56 55 56 57 55 49 43 51 48 42 56 61 64 67 64 64 66
64 66 63 61 58 57 56 52 49 42 35 40 44 49 54 57 56 56 57 59 60 59 59 57 54 53 54 56 59 59 62 61 59 60 51 57 56 48 56 59 64 67 68 72 73
63 67 66 65 64 64 61 57 51 43 43 45 50 54 57 58 58 59 58 56 58 60 59 59 58 56 58 59 61 63 69 69 62 62 57 56 53 53 60 69 71 73 74 77 81
66 62 65 68 70 68 66 62 52 47 51 55 56 56 56 60 61 59 56 56 62 66 66 64 57 62 60 64 67 69 74 78 73 64 61 62 58 58 64 74 78 79 81 83 85
71 70 69 73 69 69 71 60 55 57 59 62 61 62 61 62 63 62 62 61 68 73 79 73 65 64 65 68 73 75 77 79 80 70 65 64 62 64 69 79 83 83 85 87 87
80 75 71 82 77 74 68 52 56 63 67 70 70 69 66 70 71 71 69 66 71 77 82 78 77 69 70 73 75 77 75 79 84 79 76 67 64 68 75 82 83 84 84 88 93
83 78 76 88 84 78 63 57 53 65 72 74 71 73 73 75 77 76 73 74 79 82 85 86 85 77 74 73 76 76 77 79 82 84 87 80 65 72 81 87 88 85 89 95 96
89 83 79 90 90 78 68 63 65 65 74 72 75 75 76 79 80 80 79 82 85 88 91 91 91 78 74 72 74 78 80 83 83 84 80 89 67 77 85 96 98 94 97 99 99
103 95 94 92 85 84 78 74 74 72 75 80 79 79 81 81 85 81 82 81 84 86 88 91 85 79 75 76 81 84 82 85 87 90 82 101 81 87 97 104 102 99 104 106 108
105 104 94 93 93 90 84 78 80 77 73 78 82 83 88 88 90 86 85 87 91 92 91 92 88 85 79 79 82 78 77 80 84 86 93 92 101 84 104 114 108 112 114 113 115
116 108 108 110 97 101 101 92 82 82 85 87 82 83 87 94 97 91 90 94 97 94 97 100 93 93 81 79 89 91 85 87 91 93 102 93 104 98 111 112 110 112 116 116 119
126 114 119 113 104 111 104 89 91 90 90 98 98 96 97 86 93 99 105 104 97 92 93 97 95 95 91 94 101 98 80 92 98 99 111 108 105 111 118 117 118 118 121 122 123
135 127 124 127 120 120 109 103 101 107 102 97 101 105 100 96 104 103 107 106 103 98 97 101 107 110 106 103 109 98 90 99 102 102 114 115 112 117 120 120 122 124 125 125 127
Wind_Direction
259 261 252 244 239 239 239 242 246 250 257 263 265 269 278 287 304 307 315 318 326 333 332 332 333 337 340 338 337 333 336 339 340 337 322 322 305 304 300 305 306 309 312 308 323
258 262 258 253 246 243 243 240 243 246 253 258 263 268 273 281 292 302 306 314 319 322 328 329 329 333 340 338 332 329 332 336 339 339 338 337 323 312 311 307 302 311 319 319 317
260 258 259 257 253 248 245 243 240 243 249 256 258 264 268 278 282 290 297 305 309 315 318 326 322 329 338 337 332 326 330 335 339 337 329 326 324 310 303 306 316 323 323 323 322
261 261 256 258 256 254 250 247 244 243 248 254 256 260 263 269 277 281 289 299 303 307 312 321 318 323 333 329 331 327 331 333 332 335 333 332 322 311 303 311 315 312 321 325 325
265 263 264 261 258 256 255 252 247 249 249 252 256 259 262 264 268 274 282 293 299 302 307 313 316 318 328 327 328 330 330 327 322 326 325 323 322 312 308 305 302 310 322 318 320
267 265 263 264 263 260 257 256 252 251 252 252 254 257 261 264 266 269 277 288 294 299 307 308 315 313 321 323 323 322 325 319 315 318 320 314 311 307 304 300 302 311 313 311 315
274 269 265 265 265 266 263 258 257 255 253 255 255 256 259 262 263 268 275 283 289 299 301 303 309 308 312 321 315 318 315 318 318 319 319 312 310 306 305 304 306 309 313 313 313
269 269 268 265 266 269 270 269 267 262 260 257 258 260 259 261 264 268 274 284 288 296 300 295 301 303 305 315 310 310 311 317 321 326 323 323 317 315 314 309 309 311 314 310 315
270 270 268 267 264 265 268 268 269 270 269 267 266 267 267 264 266 270 275 283 288 296 296 294 295 299 303 309 310 305 307 314 320 324 324 319 310 314 312 308 310 312 312 316 318
271 270 270 268 267 266 265 264 265 267 271 270 270 271 271 268 268 270 276 281 289 292 293 292 292 294 301 303 309 307 301 303 312 313 320 323 314 309 312 310 312 315 314 317 317
267 270 270 273 271 272 270 267 266 265 265 270 272 272 270 270 270 272 276 281 288 291 290 291 293 291 296 300 307 302 301 297 298 306 317 321 320 314 311 309 312 315 313 315 318
268 268 271 274 277 276 275 274 270 265 266 272 273 271 269 269 271 275 277 283 287 287 289 291 292 291 293 296 303 304 301 296 295 297 301 308 316 317 310 308 310 311 311 313 316
268 268 270 272 275 276 279 276 272 269 263 272 272 268 268 269 270 274 278 282 285 287 288 291 291 291 292 295 301 301 300 297 298 296 298 301 310 315 312 311 313 312 313 314 319
265 267 269 270 271 272 276 278 279 272 265 271 270 270 266 268 270 273 276 279 280 282 286 290 290 290 291 293 297 298 297 296 299 297 296 296 305 307 306 309 309 311 312 313 319
263 264 268 271 272 271 272 273 278 274 268 267 269 270 270 269 271 275 277 278 280 282 285 288 288 289 290 291 295 297 294 294 298 298 301 295 310 313 299 307 307 307 309 313 314
266 266 266 268 269 271 273 271 271 276 274 267 268 270 271 273 274 275 277 279 281 282 284 283 286 288 288 289 293 296 293 293 295 296 300 299 301 312 302 303 305 304 305 309 310
265 266 268 268 266 268 268 268 271 277 274 274 269 267 271 273 274 275 277 279 281 281 281 281 284 286 287 290 294 295 293 292 293 296 299 300 304 304 301 300 302 303 305 309 310
259 262 266 268 270 270 266 264 270 269 273 272 269 267 269 271 272 273 276 279 279 280 280 281 284 285 288 293 294 294 293 294 294 293 297 301 299 302 302 300 301 304 307 310 310
265 263 263 265 267 270 270 271 269 268 269 269 269 268 268 269 271 273 276 278 280 282 283 283 284 286 290 291 292 291 294 295 294 296 299 302 304 310 305 300 300 304 306 309 310
263 266 268 266 265 265 270 276 272 272 266 268 270 270 269 268 271 273 275 275 281 283 284 286 284 284 286 289 291 294 298 294 295 297 297 301 308 308 303 302 304 305 308 310 310
268 268 265 266 267 267 277 272 271 269 271 270 272 274 272 272 272 273 273 276 276 277 280 283 283 284 289 290 293 294 293 294 297 299 298 302 306 304 299 305 305 309 310 307 311
261 265 267 267 268 272 274 273 264 265 268 274 272 272 273 273 273 274 275 275 276 277 277 279 282 287 287 293 295 289 293 294 296 298 302 300 310 301 304 303 303 305 307 308 310
260 263 260 267 273 274 269 268 273 269 263 266 273 272 274 277 278 276 274 275 276 277 279 281 284 287 289 290 289 291 293 296 297 295 307 294 309 305 304 301 304 310 308 310 309
264 262 258 268 265 268 270 270 267 269 271 276 275 273 270 271 274 275 277 278 279 277 282 284 287 290 289 287 286 287 290 293 297 304 294 305 302 308 302 299 308 306 307 309 312
264 261 265 269 265 262 262 263 269 269 270 271 274 275 272 270 270 277 275 275 275 276 280 285 286 286 289 288 289 288 293 295 299 297 299 303 302 307 299 302 305 308 307 307 309
266 264 263 267 263 263 264 266 266 264 266 264 269 273 269 277 282 278 271 272 274 277 281 285 286 286 287 286 285 289 302 297 295 300 297 299 307 299 301 303 306 307 307 307 309
268 265 266 264 267 265 267 268 264 263 261 266 265 266 271 273 270 273 270 272 274 277 279 284 288 285 287 285 286 291 295 295 295 298 300 302 301 300 299 302 302 304 305 307 307
Height
10846 10846 10846 10847 10847 10848 10849 10849 10850 10851 10851 10850 10850 10849 10848 10847 10844 10841 10839 10838 10835 10832 10829 10826 10821 10816 10812 10808 10805 10803 10801 10799 10796 10793 10790 10789 10787 10784 10782 10782 10780 10777 10775 10772 10769
10842 10842 10842 10842 10842 10843 10844 10845 10845 10845 10846 10846 10846 10845 10844 10843 10842 10839 10837 10834 10832 10829 10826 10823 10819 10815 10811 10807 10804 10801 10799 10797 10793 10790 10787 10785 10782 10779 10777 10775 10773 10772 10771 10769 10766
10836 10836 10836 10836 10837 10838 10838 10839 10840 10841 10840 10840 10840 10840 10839 10838 10838 10836 10834 10832 10829 10826 10823 10820 10817 10813 10809 10804 10801 10797 10795 10793 10790 10787 10784 10783 10780 10775 10772 10770 10768 10765 10763 10761 10760
10831 10831 10830 10830 10831 10832 10832 10833 10834 10835 10835 10834 10834 10834 10834 10834 10833 10831 10829 10828 10825 10823 10819 10816 10813 10809 10805 10803 10799 10795 10791 10788 10786 10784 10782 10778 10777 10774 10769 10764 10761 10758 10758 10756 10753
10825 10825 10825 10825 10824 10824 10826 10827 10828 10828 10829 10828 10828 10828 10828 10828 10827 10825 10823 10822 10821 10819 10816 10812 10809 10805 10801 10797 10794 10792 10788 10785 10782 10780 10777 10773 10770 10767 10764 10760 10758 10755 10753 10751 10749
10818 10818 10818 10818 10818 10818 10817 10819 10820 10820 10820 10821 10822 10822 10821 10821 10820 10819 10817 10816 10815 10814 10812 10808 10805 10801 10798 10795 10791 10788 10785 10783 10779 10776 10774 10771 10768 10763 10759 10755 10753 10752 10750 10747 10744
10811 10811 10811 10811 10811 10811 10811 10811 10812 10811 10812 10813 10814 10814 10815 10815 10813 10812 10811 10810 10808 10807 10805 10803 10800 10797 10794 10790 10787 10783 10780 10777 10775 10772 10769 10767 10764 10759 10754 10749 10746 10743 10740 10737 10733
10802 10802 10802 10802 10803 10804 10804 10805 10806 10805 10805 10804 10805 10806 10807 10807 10806 10805 10804 10803 10801 10800 10798 10797 10795 10791 10788 10785 10782 10779 10775 10771 10768 10765 10761 10759 10755 10754 10749 10743 10739 10735 10730 10727 10722
10794 10793 10793 10793 10793 10793 10795 10796 10796 10797 10797 10797 10799 10799 10800 10798 10798 10797 10797 10796 10794 10793 10790 10789 10788 10785 10781 10779 10776 10772 10769 10765 10762 10760 10755 10751 10744 10743 10739 10735 10732 10728 10722 10719 10715
10785 10785 10785 10785 10784 10783 10783 10784 10786 10787 10787 10788 10790 10791 10791 10790 10789 10788 10789 10788 10786 10784 10782 10780 10779 10776 10773 10771 10769 10765 10761 10759 10758 10756 10750 10747 10740 10735 10734 10727 10723 10720 10716 10712 10707
10776 10777 10777 10776 10776 10775 10774 10774 10775 10778 10777 10778 10781 10782 10780 10780 10779 10779 10780 10780 10777 10776 10774 10771 10770 10767 10765 10762 10760 10756 10753 10752 10748 10748 10747 10742 10737 10728 10725 10721 10718 10714 10708 10705 10700
10767 10768 10769 10769 10768 10767 10765 10765 10765 10768 10769 10770 10770 10772 10769 10768 10769 10768 10769 10769 10766 10765 10764 10762 10759 10756 10754 10752 10750 10745 10744 10740 10739 10738 10738 10734 10731 10722 10712 10708 10708 10704 10699 10694 10689
10759 10758 10759 10759 10759 10759 10758 10756 10755 10757 10761 10761 10761 10761 10758 10756 10757 10756 10757 10757 10755 10753 10752 10751 10749 10746 10742 10739 10741 10733 10732 10731 10732 10730 10726 10725 10727 10718 10703 10691 10690 10687 10683 10679 10675
10748 10748 10748 10749 10748 10747 10749 10748 10747 10747 10755 10756 10749 10748 10746 10745 10746 10745 10745 10745 10743 10741 10739 10741 10736 10735 10732 10727 10728 10726 10718 10718 10720 10720 10720 10709 10722 10717 10701 10689 10680 10674 10670 10666 10662
10735 10736 10737 10738 10738 10736 10737 10738 10740 10738 10750 10746 10742 10735 10731 10732 10734 10733 10733 10733 10731 10729 10725 10725 10726 10723 10719 10716 10714 10714 10708 10706 10706 10706 10710 10698 10702 10707 10688 10682 10669 10662 10657 10653 10650
10721 10722 10725 10724 10726 10725 10725 10727 10729 10734 10741 10736 10732 10725 10719 10718 10721 10722 10720 10719 10716 10715 10713 10710 10713 10711 10707 10704 10700 10699 10693 10692 10694 10691 10699 10691 10688 10698 10677 10669 10661 10650 10645 10640 10633
10706 10708 10709 10710 10710 10711 10712 10715 10721 10729 10726 10723 10717 10714 10710 10708 10708 10707 10708 10708 10701 10696 10698 10699 10699 10699 10695 10692 10688 10683 10676 10674 10682 10678 10681 10680 10682 10679 10667 10652 10647 10638 10634 10628 10618
10691 10694 10693 10694 10693 10695 10697 10703 10716 10719 10711 10707 10704 10700 10701 10697 10695 10694 10697 10696 10685 10680 10679 10682 10692 10681 10685 10678 10673 10670 10659 10649 10653 10663 10671 10668 10669 10666 10653 10637 10629 10627 10620 10613 10602
10673 10677 10681 10671 10677 10677 10680 10695 10705 10703 10699 10690 10686 10689 10691 10685 10680 10682 10684 10687 10673 10664 10653 10662 10676 10675 10673 10666 10659 10654 10648 10636 10624 10637 10649 10653 10654 10653 10635 10617 10611 10609 10603 10594 10581
10654 10661 10669 10649 10657 10659 10668 10689 10688 10682 10676 10673 10673 10674 10676 10671 10668 10666 10670 10675 10663 10649 10636 10642 10642 10661 10659 10656 10647 10637 10635 10623 10608 10612 10621 10639 10641 10632 10616 10601 10597 10591 10584 10573 10561
10636 10643 10650 10627 10634 10641 10664 10672 10671 10665 10658 10654 10658 10657 10657 10654 10651 10652 10656 10656 10645 10638 10627 10622 10621 10640 10643 10639 10631 10621 10618 10610 10601 10596 10589 10604 10629 10615 10592 10579 10573 10574 10566 10550 10542
10615 10623 10626 10609 10612 10633 10649 10649 10653 10651 10639 10639 10637 10639 10637 10633 10632 10636 10639 10633 10623 10618 10612 10606 10603 10622 10625 10623 10614 10602 10598 10592 10586 10585 10584 10565 10606 10591 10577 10559 10553 10557 10545 10530 10518
10589 10595 10602 10601 10606 10613 10621 10626 10628 10634 10627 10620 10619 10622 10615 10617 10608 10615 10613 10615 10603 10597 10593 10587 10596 10603 10612 10607 10592 10587 10587 10578 10572 10569 10580 10531 10578 10569 10551 10528 10531 10531 10514 10505 10495
10556 10564 10576 10582 10597 10591 10593 10602 10607 10610 10610 10607 10605 10600 10600 10598 10587 10595 10598 10590 10584 10576 10571 10567 10575 10581 10588 10582 10571 10566 10571 10565 10558 10557 10542 10546 10525 10567 10520 10493 10512 10498 10490 10476 10465
10523 10544 10549 10555 10572 10566 10558 10583 10592 10593 10590 10583 10585 10586 10572 10570 10570 10581 10575 10564 10560 10564 10560 10550 10556 10551 10566 10564 10543 10542 10558 10550 10537 10529 10506 10532 10511 10522 10490 10481 10483 10474 10464 10453 10441
10487 10515 10516 10525 10533 10534 10539 10573 10570 10570 10559 10559 10560 10556 10548 10559 10555 10549 10535 10533 10541 10547 10542 10538 10536 10529 10541 10537 10519 10519 10554 10526 10517 10517 10487 10484 10501 10481 10462 10457 10451 10443 10433 10423 10413
10455 10473 10477 10486 10497 10493 10530 10541 10540 10524 10537 10538 10535 10528 10540 10546 10511 10515 10509 10516 10519 10524 10524 10516 10513 10507 10510 10509 10490 10515 10531 10505 10496 10494 10467 10464 10466 10450 10443 10439 10431 10419 10408 10401 10390